This demonstration page uses our WeatherBlox Daily Observations layout. Learn more.

Left ArrowRight Arrow

34.74481, -87.66753

Hourly Observations for June 24, 2017

Temp ( °F °C ) Dew Point ( °F °C ) Humidity (%) Winds ( mph kmh ) Pressure ( in mb ) Visibility ( mi km ) Precip ( " mm )
12:26 am 00:26 Mostly Clear 76 24.4 73 22.8 91 91 Calm 29.88 1012 10 16 0.00 0.00
12:40 am 00:40 Mostly Cloudy 76 24.4 73 22.8 91 91 NNW 3 6 29.91 1013 10 16 0.00 0.00
12:53 am 00:53 Cloudy 76 24.4 74 23.3 94 94 NNW 3 6 29.91 1013 10 16 0.00 0.00
1:53 am 01:53 Cloudy 76 24.4 74 23.3 94 94 W 3 6 29.91 1013 10 16 0.00 0.00
2:10 am 02:10 Cloudy with Thunderstorms 76 24.4 74 23.3 94 94 Calm 29.88 1012 10 16 0.00 0.00
2:45 am 02:45 Cloudy with Rain 76 24.4 73 22.8 91 91 VRB 5 7 29.88 1012 10 16 0.03 0.76
2:53 am 02:53 Cloudy with Light Rain 75 23.9 72 22.2 90 90 N 3 6 29.90 1013 10 16 0.03 0.76
3:51 am 03:51 Cloudy 73 23 72 22 94 94 N 5 7 29.91 1013 10 16 0.01 0.25
3:53 am 03:53 Cloudy 74 23.3 71 21.7 91 91 N 5 7 29.91 1013 10 16 0.01 0.25
4:02 am 04:02 Cloudy 74 23.3 72 22.2 94 94 Calm 29.91 1013 10 16 0.00 0.00
4:10 am 04:10 Cloudy 75 23.9 71 21.7 88 88 Calm 29.91 1013 10 16 0.00 0.00
4:25 am 04:25 Cloudy 75 23.9 72 22.2 90 90 Calm 29.91 1013 10 16 0.00 0.00
4:32 am 04:32 Cloudy 75 23.9 72 22.2 90 90 Calm 29.94 1014 10 16 0.00 0.00
4:53 am 04:53 Cloudy 75 23.9 72 22.2 90 90 NNW 5 7 29.94 1014 10 16 0.00 0.00
5:41 am 05:41 Partly Cloudy 74 23.3 71 21.7 91 91 N 5 7 29.94 1014 10 16 0.00 0.00
5:53 am 05:53 Mostly Cloudy 74 23.3 71 21.7 91 91 N 5 7 29.96 1014 10 16 0.00 0.00
6:31 am 06:31 Mostly Cloudy 75 23.9 71 21.7 88 88 NNW 5 7 29.97 1015 10 16 0.00 0.00
6:49 am 06:49 Cloudy 75 24 72 22 89 89 NNW 3 6 29.97 1015 10 16 0.00 0.00
6:53 am 06:53 Cloudy 75 23.9 71 21.7 88 88 NNW 5 7 29.99 1016 10 16 0.00 0.00
7:31 am 07:31 Cloudy 75 23.9 69 20.6 82 82 N 5 7 30.00 1016 10 16 0.00 0.00
7:53 am 07:53 Mostly Cloudy 75 23.9 69 20.6 82 82 N 6 9 30.00 1016 10 16 0.00 0.00
8:53 am 08:53 Mostly Cloudy 77 25 67 19.4 71 71 NNE 3 6 30.01 1016 10 16 0.00 0.00
9:53 am 09:53 Mostly Cloudy 80 26.7 65 18.3 60 60 N 5 7 30.02 1017 10 16 0.00 0.00
10:53 am 10:53 Cloudy 81 27.2 64 17.8 57 57 N 7 11 30.04 1017 10 16 0.00 0.00
11:53 am 11:53 Sunny 84 28.9 64 17.8 51 51 NNW 8 13 30.04 1017 10 16 0.00 0.00
12:53 pm 12:53 Sunny 86 30 63 17.2 46 46 NNW 6 9 30.04 1017 10 16 0.00 0.00
1:53 pm 13:53 Sunny 86 30 62 16.7 45 45 NNE 5 7 30.04 1017 10 16 0.00 0.00
2:53 pm 14:53 Mostly Sunny 88 31.1 64 17.8 45 45 NNW 9 15 30.03 1017 10 16 0.00 0.00
3:53 pm 15:53 Sunny 86 30 62 16.7 45 45 NNW 8 13 30.02 1017 10 16 0.00 0.00
4:53 pm 16:53 Sunny 85 29.4 63 17.2 48 48 N 7 11 30.02 1017 10 16 0.00 0.00
5:53 pm 17:53 Sunny 83 28.3 62 16.7 49 49 NNW 6 9 30.04 1017 10 16 0.00 0.00
6:53 pm 18:53 Sunny 79 26.1 62 16.7 56 56 NNW 6 9 30.06 1018 10 16 0.00 0.00
7:53 pm 19:53 Sunny 76 24.4 61 16.1 60 60 NNW 3 6 30.09 1019 10 16 0.00 0.00
8:53 pm 20:53 Clear 74 23.3 62 16.7 67 67 N 6 9 30.10 1019 10 16 0.00 0.00
9:53 pm 21:53 Clear 73 22.8 62 16.7 69 69 N 3 6 30.12 1020 10 16 0.00 0.00
10:53 pm 22:53 Clear 70 21.1 62 16.7 76 76 N 5 7 30.12 1020 10 16 0.00 0.00
11:53 pm 23:53 Clear 69 20.6 62 16.7 78 78 NNW 3 6 30.14 1021 10 16 0.00 0.00

Powered by AerisWeather